LVBMP ZZZZ-SANT

Flight info

Callsign LVBMP
Flight time N/A
Altitude 4000
Route DCT
Aircraft C208/M-SDFGRZ/C

Departure

Time N/A
Airport ZZZZ

Arrival

Time 2026-04-26 19:58
Airport Teniente Benjamín Matienzo International Airport (SANT)
Time Latitude Longitude Altitude Speed Heading
2026-04-26 19:46 -26.79555 -65.31398 1917 ft 0 kts 101°
2026-04-26 19:47 -26.79548 -65.31389 1917 ft 6 kts 11°
2026-04-26 19:47 -26.79502 -65.31409 1919 ft 3 kts 292°
2026-04-26 19:48 -26.79506 -65.31434 1922 ft 4 kts 194°
2026-04-26 19:48 -26.79533 -65.31376 1909 ft 20 kts 100°
2026-04-26 19:48 -26.79594 -65.30985 1879 ft 83 kts 101°
2026-04-26 19:48 -26.79724 -65.30217 1957 ft 111 kts 100°
2026-04-26 19:49 -26.79889 -65.29376 2259 ft 110 kts 99°
2026-04-26 19:49 -26.79698 -65.28539 2491 ft 125 kts 49°
2026-04-26 19:49 -26.79001 -65.27889 2690 ft 136 kts 48°
2026-04-26 19:49 -26.78723 -65.26865 2768 ft 150 kts 94°
2026-04-26 19:50 -26.79180 -65.25802 2811 ft 158 kts 137°
2026-04-26 19:50 -26.80206 -65.25393 2935 ft 158 kts 173°
2026-04-26 19:50 -26.81261 -65.25243 3107 ft 154 kts 166°
2026-04-26 19:50 -26.82277 -65.24795 3175 ft 159 kts 150°
2026-04-26 19:51 -26.83071 -65.23985 3341 ft 156 kts 123°
2026-04-26 19:51 -26.83477 -65.22840 3357 ft 159 kts 104°
2026-04-26 19:51 -26.83742 -65.21655 3499 ft 156 kts 104°
2026-04-26 19:51 -26.83978 -65.20463 3529 ft 160 kts 102°
2026-04-26 19:52 -26.84427 -65.19319 3505 ft 164 kts 128°
2026-04-26 19:52 -26.85321 -65.18550 3507 ft 164 kts 155°
2026-04-26 19:52 -26.86457 -65.18380 3494 ft 165 kts 182°
2026-04-26 19:52 -26.87589 -65.18651 3459 ft 168 kts 195°
2026-04-26 19:53 -26.88711 -65.19040 3530 ft 168 kts 194°
2026-04-26 19:53 -26.89797 -65.19382 3484 ft 155 kts 193°
2026-04-26 19:53 -26.90826 -65.19686 3276 ft 151 kts 193°
2026-04-26 19:53 -26.91784 -65.19761 3506 ft 136 kts 159°
2026-04-26 19:54 -26.92516 -65.19050 3338 ft 150 kts 118°
2026-04-26 19:54 -26.92807 -65.17898 3299 ft 154 kts 99°
2026-04-26 19:54 -26.92973 -65.16724 3311 ft 149 kts 98°
2026-04-26 19:54 -26.93080 -65.15601 3331 ft 146 kts 95°
2026-04-26 19:55 -26.93165 -65.14463 3239 ft 146 kts 92°
2026-04-26 19:55 -26.93055 -65.13322 3129 ft 149 kts 75°
2026-04-26 19:55 -26.92494 -65.12341 2897 ft 154 kts 42°
2026-04-26 19:55 -26.91549 -65.11948 2742 ft 139 kts
2026-04-26 19:56 -26.90638 -65.11855 2643 ft 128 kts
2026-04-26 19:56 -26.89761 -65.11687 2532 ft 125 kts 14°
2026-04-26 19:56 -26.88925 -65.11457 2392 ft 116 kts 13°
2026-04-26 19:56 -26.88174 -65.11307 2203 ft 107 kts 11°
2026-04-26 19:57 -26.87461 -65.11158 2043 ft 102 kts 13°
2026-04-26 19:57 -26.86834 -65.11031 1950 ft 85 kts 11°
2026-04-26 19:57 -26.86261 -65.10927 1866 ft 81 kts 12°
2026-04-26 19:57 -26.85715 -65.10803 1699 ft 80 kts 13°
2026-04-26 19:58 -26.85167 -65.10694 1557 ft 79 kts 14°
2026-04-26 19:58 -26.84649 -65.10594 1490 ft 70 kts 14°
2026-04-26 19:58 -26.84286 -65.10522 1491 ft 25 kts 10°
2026-04-26 19:58 -26.84182 -65.10546 1492 ft 10 kts 340°
2026-04-26 19:59 -26.84091 -65.10584 1491 ft 22 kts 341°
2026-04-26 19:59 -26.83901 -65.10662 1491 ft 36 kts 339°
2026-04-26 19:59 -26.83678 -65.10724 1484 ft 14 kts 11°
2026-04-26 19:59 -26.83653 -65.10745 1488 ft 3 kts 279°
2026-04-26 20:00 -26.83652 -65.10752 1489 ft 0 kts 279°
2026-04-26 20:00 -26.83651 -65.10758 1491 ft 0 kts 279°
2026-04-26 20:00 -26.83651 -65.10760 1491 ft 1 kts 280°
2026-04-26 20:01 -26.83645 -65.10775 1491 ft 2 kts 347°
2026-04-26 20:01 -26.83641 -65.10772 1491 ft 0 kts 39°